Voltar ao catálogo

FLOCK 4BE 29

AtivoCiênciaSSO
NORAD 60509·PAYLOAD·🇺🇸 United States

Lançado Aug 16, 2024 de Vandenberg Space Force Base

Loading…

Próximas Passagens (próximas 24 horas)

TLE

AtualizadoSource: CelesTrak SupGP

Época: Sep 14, 2026, 16:45 UTC

1 60509C 24149AZ  26257.69798611  .00019381  00000+0  36119-3 0  2570
2 60509  97.3771 345.2162 0001961  26.9422 172.0916 15.48838964    14

Acompanhe FLOCK 4BE 29 em tempo real com AllMySat

Download on the App Store